GW5959 Weather Reports


time (UTC)temp
F
wind
direction
speed
knots
gust
knots
rain 1hr
in
rain 24hr
in
rain mn
in
humidity
%
barometer
mb
20260504184313 73 270 13.0 23.5 0.00 0.00 0.00 52 1004.2
20260504183809 74 243 13.9 26.9 0.00 0.00 0.00 50 1003.8
20260504183307 72 226 13.0 21.7 0.00 0.00 0.00 52 1004.2
20260504182804 73 243 13.9 19.1 0.00 0.00 0.00 51 1004.0
20260504182301 73 220 16.5 20.9 0.00 0.00 0.00 50 1004.1
20260504181759 74 210 8.7 14.8 0.00 0.00 0.00 51 1004.1
20260504181256 74 237 20.0 23.5 0.00 0.00 0.00 49 1004.0
20260504180755 74 258 12.2 20.0 0.00 0.00 0.00 51 1004.1
20260504180253 74 231 13.9 18.2 0.00 0.00 0.00 50 1004.2
20260504175750 73 257 17.4 20.9 0.00 0.00 0.00 50 1004.0
20260504175247 73 219 11.3 16.5 0.00 0.00 0.00 51 1004.0
20260504174745 73 233 14.8 16.5 0.00 0.00 0.00 49 1003.9
20260504174243 73 218 10.4 19.1 0.00 0.00 0.00 51 1004.0
20260504173739 72 251 11.3 20.0 0.00 0.00 0.00 50 1003.9
20260504173236 72 252 18.2 21.7 0.00 0.00 0.00 51 1004.1
20260504172733 72 258 14.8 19.1 0.00 0.00 0.00 50 1004.4
20260504172229 72 266 10.4 14.8 0.00 0.00 0.00 52 1004.3
20260504171726 72 246 10.4 16.5 0.00 0.00 0.00 53 1004.4
20260504171223 72 243 20.9 22.6 0.00 0.00 0.00 51 1004.4
20260504170719 71 262 10.4 13.0 0.00 0.00 0.00 54 1004.5
20260504170217 71 253 13.0 19.1 0.00 0.00 0.00 54 1004.7
20260504160135 67 213 11.3 15.6 0.00 0.00 0.00 60 1005.5
20260504151103 64 206 9.6 13.0 0.00 0.00 0.00 63 1005.7
20260504150600 64 230 7.8 12.2 0.00 0.00 0.00 64 1005.7
20260504141026 61 191 11.3 13.0 0.00 0.00 0.00 66 1006.1
20260504140522 61 226 9.6 12.2 0.00 0.00 0.00 66 1006.0
20260504130447 55 230 9.6 12.2 0.00 0.00 0.00 69 1006.5
20260504110334 47 187 6.1 7.8 0.00 0.00 0.00 78 1006.6
20260504100251 48 203 8.7 11.3 0.00 0.00 0.00 76 1006.7
20260504081645 49 199 7.8 9.6 0.00 0.00 0.00 74 1007.4
20260504081141 49 205 7.8 9.6 0.00 0.00 0.00 74 1007.6
20260504080637 49 199 8.7 9.6 0.00 0.00 0.00 74 1007.7
20260504080134 49 202 7.8 12.2 0.00 0.00 0.00 74 1007.7
20260504050450 52 185 7.8 9.6 0.00 0.00 0.00 66 1009.4
20260504045947 52 195 9.6 11.3 0.00 0.00 0.00 65 1009.1
20260504045443 53 187 9.6 13.0 0.00 0.00 0.00 64 1009.1
20260504044939 53 191 10.4 12.2 0.00 0.00 0.00 64 1009.4
20260504044437 53 178 10.4 12.2 0.00 0.00 0.00 64 1009.2
20260504043934 53 182 11.3 13.0 0.00 0.00 0.00 65 1009.4
20260504043431 53 181 11.3 13.0 0.00 0.00 0.00 64 1009.0
20260504042929 52 144 9.6 13.0 0.00 0.00 0.00 64 1009.3
20260504042425 52 165 8.7 11.3 0.00 0.00 0.00 65 1009.3
20260504041921 52 176 8.7 13.0 0.00 0.00 0.00 66 1009.7
20260504041418 52 173 10.4 12.2 0.00 0.00 0.00 66 1009.7
20260504040914 52 168 8.7 9.6 0.00 0.00 0.00 67 1009.5
20260504040412 52 142 7.8 11.3 0.00 0.00 0.00 67 1009.8
20260504035908 52 173 7.8 11.3 0.00 0.01 0.01 67 1009.8
20260504035405 52 174 6.1 11.3 0.00 0.01 0.01 66 1009.7
20260504034902 52 172 8.7 13.0 0.00 0.01 0.01 66 1009.9
20260504034359 52 186 8.7 11.3 0.00 0.01 0.01 67 1009.9
20260504033856 51 181 7.8 9.6 0.00 0.01 0.01 68 1010.2
20260504033354 51 163 7.8 9.6 0.00 0.01 0.01 68 1009.9
20260504032850 51 177 6.1 8.7 0.00 0.01 0.01 69 1010.2
20260504032347 51 163 6.1 8.7 0.00 0.01 0.01 69 1009.9
20260504031844 51 170 6.1 11.3 0.00 0.01 0.01 69 1010.0
20260504031341 50 150 6.1 7.8 0.00 0.01 0.01 71 1010.2
20260504030838 50 161 6.1 7.8 0.00 0.01 0.01 71 1010.5
20260504030335 50 172 9.6 9.6 0.00 0.01 0.01 72 1010.3
20260504025831 50 158 8.7 9.6 0.00 0.01 0.01 71 1010.3
20260504025328 50 169 8.7 13.0 0.00 0.01 0.01 71 1010.1
20260504024825 50 170 8.7 11.3 0.00 0.01 0.01 72 1010.4
20260504024321 50 164 9.6 11.3 0.00 0.01 0.01 72 1010.6
20260504023818 50 156 10.4 12.2 0.00 0.01 0.01 72 1010.6
20260504023315 50 183 8.7 9.6 0.00 0.01 0.01 74 1010.6
20260504022811 49 162 8.7 9.6 0.00 0.01 0.01 75 1010.6
20260504022308 49 183 6.1 7.8 0.00 0.01 0.01 76 1010.5
20260504021804 49 168 6.1 7.8 0.00 0.01 0.01 77 1010.9
20260504021302 49 158 8.7 9.6 0.00 0.01 0.01 78 1010.7
20260504020758 49 166 8.7 8.7 0.00 0.01 0.01 78 1010.7
20260504020255 49 151 9.6 9.6 0.00 0.01 0.01 79 1010.5
20260504015751 49 174 7.0 12.2 0.00 0.01 0.01 78 1010.6
20260504015248 49 139 7.8 9.6 0.00 0.01 0.01 78 1010.9
20260504014743 49 164 8.7 11.3 0.00 0.01 0.01 76 1010.7
20260504014240 49 153 9.6 11.3 0.00 0.01 0.01 75 1010.7
20260504013738 49 145 10.4 12.2 0.00 0.01 0.01 75 1010.8
20260504013235 49 156 7.8 11.3 0.00 0.01 0.01 76 1010.7
20260504012732 49 151 8.7 11.3 0.00 0.01 0.01 77 1010.7
20260504012230 49 173 7.0 9.6 0.00 0.01 0.01 79 1010.8
20260504011726 49 148 7.8 9.6 0.00 0.01 0.01 78 1010.9
20260504011223 48 153 7.8 9.6 0.00 0.01 0.01 79 1010.7
20260504010719 48 156 6.1 12.2 0.00 0.01 0.01 79 1010.9
20260504010215 48 164 9.6 11.3 0.07 0.01 0.01 80 1010.9
20260504005711 48 147 7.8 12.2 0.07 0.01 0.01 80 1010.9
20260504005209 48 161 10.4 12.2 0.00 0.00 0.00 79 1010.6
20260504004707 49 179 7.8 13.0 0.00 0.00 0.00 78 1010.8
20260504004203 49 153 8.7 14.8 0.00 0.00 0.00 76 1010.7
20260504003700 49 177 9.6 13.0 0.00 0.00 0.00 75 1010.8
20260504003157 49 189 7.8 11.3 0.00 0.00 0.00 77 1011.0
20260504002653 49 202 7.8 8.7 0.00 0.00 0.00 79 1011.0
20260504002151 49 194 7.8 9.6 0.00 0.00 0.00 80 1010.9
20260504001649 49 175 8.7 9.6 0.00 0.00 0.00 79 1010.7
20260504001144 49 182 8.7 9.6 0.00 0.00 0.00 80 1010.7
20260504000642 48 179 7.8 9.6 0.00 0.00 0.00 80 1010.8
20260504000139 49 158 6.1 7.8 0.00 0.00 0.00 80 1010.8
20260503235637 48 164 7.8 9.6 0.00 0.00 0.00 80 1010.7
20260503235133 48 147 7.0 7.8 0.00 0.00 0.00 80 1011.0
20260503234632 48 157 6.1 7.0 0.00 0.00 0.00 80 1011.0
20260503234130 48 148 6.1 8.7 0.00 0.00 0.00 81 1010.8
20260503233626 48 135 10.4 12.2 0.00 0.00 0.00 80 1010.7
20260503233122 48 150 7.8 9.6 0.00 0.00 0.00 80 1011.2
20260503232619 48 166 7.0 7.8 0.00 0.00 0.00 80 1011.2
20260503232116 48 151 7.0 11.3 0.00 0.00 0.00 79 1011.1
20260503231614 48 130 8.7 12.2 0.00 0.00 0.00 81 1010.9
20260503231110 48 138 8.7 9.6 0.00 0.00 0.00 81 1011.2
20260503230608 48 140 8.7 8.7 0.00 0.00 0.00 81 1011.1
20260503230104 48 138 7.0 9.6 0.00 0.00 0.00 81 1011.1
20260503225602 48 142 7.0 8.7 0.00 0.00 0.00 80 1011.4
20260503225056 48 140 7.8 8.7 0.00 0.00 0.00 79 1011.7
20260503224554 48 145 5.2 6.1 0.00 0.00 0.00 81 1011.7
20260503224052 48 134 6.1 7.8 0.00 0.00 0.00 80 1011.7
20260503223550 48 134 6.1 7.0 0.00 0.00 0.00 80 1011.8
20260503223045 48 117 5.2 7.0 0.00 0.00 0.00 81 1012.0
20260503222543 48 141 7.0 7.8 0.00 0.00 0.00 80 1012.1
20260503222041 48 142 7.0 7.0 0.00 0.00 0.00 79 1012.2
20260503221539 48 154 6.1 7.8 0.00 0.00 0.00 79 1012.2
20260503221036 48 158 5.2 7.0 0.00 0.00 0.00 81 1012.2
20260503220532 48 203 3.5 6.1 0.00 0.00 0.00 80 1012.8
20260503220029 48 217 7.8 8.7 0.00 0.00 0.00 80 1012.9
20260503215526 48 236 8.7 12.2 0.00 0.00 0.00 80 1013.1
20260503215023 48 255 7.0 13.9 0.00 0.00 0.00 81 1013.3
20260503214522 48 245 11.3 18.2 0.00 0.00 0.00 79 1013.3
20260503214018 49 248 12.2 20.9 0.00 0.00 0.00 76 1013.3
20260503213516 49 270 13.0 18.2 0.00 0.00 0.00 74 1013.3
20260503213013 50 256 19.1 25.2 0.00 0.00 0.00 69 1013.2
20260503212510 51 258 21.7 23.5 0.00 0.00 0.00 67 1013.2
20260503212008 51 236 16.5 20.0 0.00 0.00 0.00 65 1013.0
20260503211504 52 253 19.1 20.9 0.00 0.00 0.00 62 1013.0
20260503211000 52 259 12.2 26.1 0.00 0.00 0.00 62 1013.0
20260503210457 53 249 16.5 26.9 0.00 0.00 0.00 61 1013.1
20260503205957 55 253 18.2 31.3 0.00 0.00 0.00 55 1012.6
20260503205454 58 251 13.9 23.5 0.00 0.00 0.00 42 1012.4
20260503204950 58 255 11.3 19.1 0.00 0.00 0.00 42 1012.4
20260503204448 58 259 12.2 13.9 0.00 0.00 0.00 40 1012.5
20260503203944 59 255 12.2 16.5 0.00 0.00 0.00 40 1012.5
20260503203442 59 242 10.4 19.1 0.00 0.00 0.00 39 1012.4
20260503202938 59 192 20.0 22.6 0.00 0.00 0.00 38 1012.3
20260503202437 59 227 13.0 15.6 0.00 0.00 0.00 39 1012.7
20260503201935 59 248 14.8 18.2 0.00 0.00 0.00 39 1012.7
20260503201432 59 209 8.7 11.3 0.00 0.00 0.00 39 1012.6
20260503200930 59 226 8.7 16.5 0.00 0.00 0.00 38 1012.9
20260503200426 59 253 14.8 18.2 0.00 0.00 0.00 39 1012.8
20260503195922 59 259 8.7 16.5 0.00 0.00 0.00 39 1012.8
20260503195420 59 250 13.9 19.1 0.00 0.00 0.00 38 1013.2
20260503194916 60 255 13.0 16.5 0.00 0.00 0.00 38 1013.3
20260503194413 59 253 14.8 19.1 0.00 0.00 0.00 37 1013.0
20260503193909 60 272 13.0 20.0 0.00 0.00 0.00 39 1013.3
20260503193404 60 243 14.8 18.2 0.00 0.00 0.00 38 1013.2
20260503192900 60 232 13.9 22.6 0.00 0.00 0.00 37 1013.1
20260503192356 59 248 14.8 20.0 0.00 0.00 0.00 37 1013.1
20260503191853 60 238 14.8 16.5 0.00 0.00 0.00 37 1013.2
20260503191350 59 247 16.5 19.1 0.00 0.00 0.00 37 1013.1
20260503190846 60 223 15.6 21.7 0.00 0.00 0.00 36 1013.2
20260503190344 60 237 13.0 20.9 0.00 0.00 0.00 39 1013.3
20260503185841 59 246 13.9 18.2 0.00 0.00 0.00 37 1013.5
20260503185337 60 238 16.5 21.7 0.00 0.00 0.00 36 1013.6
20260503184836 59 195 13.0 14.8 0.00 0.00 0.00 37 1013.8